Weather History for Three Rivers, MI

Change the Weather History Date:

Tuesday, February 9, 2010

  Actual Average Record
Temperature  
Mean Temperature 26 °F -  
Max Temperature 28 °F 32 °F 58 °F (1990)
Min Temperature 23 °F 12 °F -18 °F (1979)
Degree Days  
Heating Degree Days 40    
Moisture  
Dew Point 21 °F    
Average Humidity 86    
Maximum Humidity 100    
Minimum Humidity 50    
Precipitation  
Precipitation 0.00 in - - ()
Sea Level Pressure  
Sea Level Pressure 29.89 in    
Wind  
Wind Speed 8 mph (ENE)    
Max Wind Speed 16 mph    
Max Gust Speed 21 mph    
Visibility 3 miles    
Events Snow    
Averages and records for this station are not official NWS values.
T = Trace of Precipitation, MM = Missing Value Source: NWS Daily Summary

Daily Weather History Graph

Daily Weather History Graph

Search for Another Location

Airport:

Trip Planner

Search our weather history database for the weather conditions in past years. The results will help you decide how hot, cold, wet, or windy it might be!

Date:

Astronomy

Feb. 09, 2010 Rise Set
Actual Time 7:46 AM EST 6:07 PM EST
Civil Twilight 7:17 AM EST 6:36 PM EST
Nautical Twilight 6:44 AM EST 7:09 PM EST
Astronomical Twilight 6:11 AM EST 7:42 PM EST
Moon 5:04 AM EST (2/9) 2:02 PM EST (2/9)
Length of Visible Light 11h 19m
Length of Day
10h 21m
Waning Crescent, 17% of the Moon is Illuminated
Feb 9
Waning Crescent
Feb 13
New
Feb 21
First Quarter
Feb 28
Full
Mar 7
Last Quarter

Hourly Weather History & Observations

Time (EST) Temp. Windchill Dew Point Humidity Pressure Visibility Wind Dir Wind Speed Gust Speed Precip Events Conditions
12:16 AM 24.8 °F 17.9 °F 8.6 °F 50% 30.11 in 10.0 mi East 5.8 mph - N/A   Overcast
12:36 AM 24.8 °F 17.9 °F 8.6 °F 50% 30.11 in 10.0 mi East 5.8 mph - N/A   Overcast
12:55 AM 24.8 °F 19.1 °F 10.4 °F 54% 30.11 in 10.0 mi ENE 4.6 mph - N/A   Overcast
1:16 AM 24.8 °F 19.1 °F 10.4 °F 54% 30.11 in 10.0 mi East 4.6 mph - N/A   Overcast
1:36 AM 26.6 °F 21.2 °F 10.4 °F 51% 30.10 in 10.0 mi East 4.6 mph - N/A   Overcast
1:55 AM 24.8 °F 19.1 °F 10.4 °F 54% 30.10 in 10.0 mi East 4.6 mph - N/A   Overcast
2:16 AM 24.8 °F 16.9 °F 12.2 °F 59% 30.10 in 7.0 mi ESE 6.9 mph - N/A   Overcast
2:36 AM 23.0 °F 13.9 °F 14.0 °F 68% 30.09 in 2.5 mi ESE 8.1 mph - N/A Snow Light Snow
2:55 AM 23.0 °F 12.4 °F 17.6 °F 80% 30.09 in 2.5 mi East 10.4 mph - N/A Snow Light Snow
3:16 AM 23.0 °F 13.1 °F 19.4 °F 86% 30.08 in 1.8 mi East 9.2 mph - N/A Snow Light Snow
3:36 AM 23.0 °F 13.9 °F 19.4 °F 86% 30.07 in 1.8 mi East 8.1 mph - N/A Snow Light Snow
3:55 AM 23.0 °F 13.1 °F 21.2 °F 93% 30.05 in 1.5 mi ENE 9.2 mph - N/A Snow Light Snow
4:16 AM 23.0 °F 13.1 °F 21.2 °F 93% 30.04 in 1.8 mi East 9.2 mph - N/A Snow Light Snow
4:36 AM 23.0 °F 14.7 °F 21.2 °F 93% 30.03 in 1.2 mi ENE 6.9 mph - N/A Snow Light Snow
4:55 AM 23.0 °F 14.7 °F 21.2 °F 93% 30.03 in 1.5 mi East 6.9 mph - N/A Snow Light Snow
5:16 AM 23.0 °F 13.1 °F 21.2 °F 93% 30.02 in 1.2 mi East 9.2 mph - N/A Snow Light Snow
5:36 AM 23.0 °F 13.9 °F 21.2 °F 93% 30.01 in 1.0 mi ENE 8.1 mph - N/A Snow Snow
5:55 AM 23.0 °F 13.9 °F 21.2 °F 93% 30.01 in 1.0 mi ENE 8.1 mph - N/A Snow Snow
6:16 AM 23.0 °F 13.1 °F 21.2 °F 93% 29.99 in 1.0 mi ENE 9.2 mph - N/A Snow Snow
6:36 AM 23.0 °F 13.9 °F 21.2 °F 93% 29.98 in 1.0 mi ENE 8.1 mph - N/A Snow Snow
6:55 AM 23.0 °F 14.7 °F 21.2 °F 93% 29.98 in 1.2 mi ENE 6.9 mph - N/A Snow Light Snow
7:16 AM 23.0 °F 11.7 °F 21.2 °F 93% 29.97 in 1.8 mi ENE 11.5 mph - N/A Snow Light Snow
7:36 AM 23.0 °F 12.4 °F 21.2 °F 93% 29.97 in 1.5 mi ENE 10.4 mph 16.1 mph N/A Snow Light Snow
7:55 AM 23.0 °F 12.4 °F 21.2 °F 93% 29.96 in 0.8 mi ENE 10.4 mph - N/A Snow Light Snow
8:16 AM 23.0 °F 13.1 °F 21.2 °F 93% 29.96 in 0.8 mi ENE 9.2 mph - N/A Snow Light Snow
8:36 AM 23.0 °F 13.1 °F 21.2 °F 93% 29.95 in 1.2 mi ENE 9.2 mph - N/A Snow Light Snow
8:55 AM 23.0 °F 12.4 °F 21.2 °F 93% 29.94 in 0.8 mi ENE 10.4 mph - N/A Snow Light Snow
9:16 AM 23.0 °F 12.4 °F 21.2 °F 93% 29.92 in 0.8 mi ENE 10.4 mph - N/A Snow Light Snow
9:36 AM 23.0 °F 11.7 °F 21.2 °F 93% 29.92 in 0.8 mi ENE 11.5 mph - N/A Snow Light Snow
9:57 AM 23.0 °F 13.9 °F 21.2 °F 93% 29.91 in 1.2 mi NE 8.1 mph - N/A Snow Light Snow
10:16 AM 24.8 °F 14.6 °F 23.0 °F 93% 29.90 in 2.5 mi NE 10.4 mph - N/A Snow Light Snow
10:55 AM 26.6 °F 15.2 °F 23.0 °F 86% 29.86 in 1.5 mi NE 13.8 mph - N/A Snow Light Snow
11:16 AM 26.6 °F 14.7 °F 23.0 °F 86% 29.85 in 1.2 mi NE 15.0 mph - N/A Snow Light Snow
11:36 AM 26.6 °F 15.7 °F 23.0 °F 86% 29.85 in 2.5 mi ENE 12.7 mph - N/A Snow Light Snow
11:55 AM 26.6 °F 14.7 °F 23.0 °F 86% 29.82 in 4.0 mi ENE 15.0 mph - N/A Snow Light Snow
12:16 PM 26.6 °F 15.2 °F 23.0 °F 86% 29.80 in 7.0 mi ENE 13.8 mph - N/A Snow Light Snow
12:36 PM 26.6 °F 15.7 °F 23.0 °F 86% 29.79 in 4.0 mi ENE 12.7 mph - N/A Snow Light Snow
12:55 PM 26.6 °F 14.7 °F 23.0 °F 86% 29.77 in 7.0 mi ENE 15.0 mph 20.7 mph N/A Snow Light Snow
1:16 PM 28.4 °F 16.6 °F 23.0 °F 80% 29.76 in 2.0 mi ENE 16.1 mph 19.6 mph N/A Snow Light Snow
1:37 PM 28.4 °F 19.7 °F 23.0 °F 80% 29.75 in 0.8 mi ENE 9.2 mph - N/A Snow Light Snow
1:55 PM 28.4 °F 19.1 °F 24.8 °F 86% 29.74 in 0.8 mi East 10.4 mph - N/A Snow Light Snow
2:16 PM 28.4 °F 19.1 °F 24.8 °F 86% 29.73 in 0.8 mi East 10.4 mph - N/A Snow Light Snow
2:37 PM 28.4 °F 18.5 °F 26.6 °F 93% 29.72 in 0.5 mi ENE 11.5 mph - N/A Snow Snow
3:16 PM 28.4 °F 21.2 °F 26.6 °F 93% 29.71 in 0.5 mi ENE 6.9 mph - N/A Snow Light Snow
3:36 PM 28.4 °F 18.0 °F 24.8 °F 86% 29.70 in 0.8 mi ENE 12.7 mph - N/A Snow Light Snow
3:55 PM 28.4 °F 21.2 °F 26.6 °F 93% 29.70 in 0.8 mi ENE 6.9 mph - N/A Snow Light Snow
4:16 PM 28.4 °F 20.4 °F 26.6 °F 93% 29.69 in 1.2 mi NE 8.1 mph - N/A Snow Light Snow
4:36 PM 26.6 °F 16.2 °F 26.6 °F 100% 29.67 in 1.5 mi ENE 11.5 mph - N/A Snow Light Snow
4:55 PM 26.6 °F 18.2 °F 24.8 °F 93% 29.67 in 1.0 mi NE 8.1 mph - N/A Snow Light Snow
5:16 PM 26.6 °F 18.2 °F 26.6 °F 100% 29.67 in 1.0 mi ENE 8.1 mph - N/A Snow Light Snow
5:36 PM 26.6 °F 19.1 °F 24.8 °F 93% 29.67 in 1.0 mi NE 6.9 mph - N/A Snow Light Snow
6:16 PM 26.6 °F 22.6 °F 26.6 °F 100% 29.67 in 0.8 mi NNE 3.5 mph - N/A Snow Light Snow
6:36 PM 26.6 °F 20.0 °F 26.6 °F 100% 29.66 in 1.8 mi NNE 5.8 mph - N/A Snow Light Snow
6:55 PM 26.6 °F 21.2 °F 24.8 °F 93% 29.66 in 1.5 mi NNE 4.6 mph - N/A Snow Light Snow
7:16 PM 26.6 °F 19.1 °F 24.8 °F 93% 29.65 in 1.8 mi NNE 6.9 mph - N/A Snow Light Snow
7:36 PM 26.6 °F 19.1 °F 24.8 °F 93% 29.65 in 1.8 mi North 6.9 mph - N/A Snow Light Snow
7:57 PM 26.6 °F 20.0 °F 24.8 °F 93% 29.64 in 3.0 mi NNE 5.8 mph - N/A Snow Light Snow
8:16 PM 26.6 °F 19.1 °F 24.8 °F 93% 29.64 in 2.5 mi NNE 6.9 mph - N/A Snow Light Snow
8:36 PM 26.6 °F 17.5 °F 24.8 °F 93% 29.64 in 1.8 mi North 9.2 mph - N/A Snow Light Snow
8:55 PM 26.6 °F 19.1 °F 24.8 °F 93% 29.63 in 1.2 mi North 6.9 mph - N/A Snow Light Snow
9:16 PM 26.6 °F 18.2 °F 23.0 °F 86% 29.63 in 1.8 mi North 8.1 mph - N/A Snow Light Snow
9:36 PM 24.8 °F 14.6 °F 23.0 °F 93% 29.63 in 2.0 mi North 10.4 mph - N/A Snow Light Snow
9:55 PM 24.8 °F 15.3 °F 23.0 °F 93% 29.62 in 1.8 mi North 9.2 mph - N/A Snow Light Snow
10:16 PM 23.0 °F 13.1 °F 23.0 °F 100% 29.62 in 3.0 mi North 9.2 mph - N/A Snow Light Snow
10:36 PM 23.0 °F 11.7 °F 21.2 °F 93% 29.62 in 2.0 mi North 11.5 mph 18.4 mph N/A Snow Light Snow
10:55 PM 23.0 °F 13.1 °F 21.2 °F 93% 29.62 in 2.0 mi North 9.2 mph - N/A Snow Light Snow
11:16 PM 23.0 °F 13.1 °F 21.2 °F 93% 29.62 in 2.5 mi North 9.2 mph - N/A Snow Light Snow
11:36 PM 23.0 °F 15.8 °F 21.2 °F 93% 29.62 in 2.5 mi NNW 5.8 mph - N/A Snow Light Snow
11:55 PM 23.0 °F 13.9 °F 21.2 °F 93% 29.62 in 2.0 mi NNW 8.1 mph - N/A Snow Light Snow